星链-4320 (STARLINK-4320 )

导读

STARLINK-4320是美国太空探索技术公司星链星座的成员,由美国于2022年7月11日发射升空,属于星链互联网卫星项目。它旨在为全球提供低延迟、高速率的卫星互联网服务,覆盖偏远地区等地面网络难以触达的区域,助力全球互联,目前已在轨运行多年,承担相应的通信服务任务。

基本信息
目录编号:
53059
目录名称:
STARLINK-4320
国际标识:
2022-077S
轨道中心:
EARTH
卫星名称:
星链-4320
卫星全名:
星链-4320 (STARLINK-4320 )
卫星状态:
在轨 (已飞行1437 天)
发射日期:
2022-07-11 UTC
国别 :
美国 (US)
星等 :
--
轨道信息
数据来源 国际轨道数据 AOE轨道数据
星历时间 2026-06-17T10:15:17+0800
9小时前
查看轨道信息
2026-06-15T12:00:00+0800
2天前
查看轨道信息
半长轴 6927.637km 6927.625km
偏心率 0.000135 0.0001263
轨道倾角 97.350° 97.363°
近地点辐角 141.296° 125.989°
升交点赤经 347.068° 345.229°
平近点角 218.836° 234.232°
近地点 548.564km 548.613km
远地点 550.436km 550.363km
周期 95.640分钟 95.639分钟
每日圈数 15.056538 15.056577
详细信息
固有亮度:
5
最大亮度:
2.5
卫星平台:
Starlink v1.5
覆盖范围:
全球
运营商:
太空探索技术公司
运营商所在国:
美国
制造商(研发单位):
太空探索技术公司
制造商所在国:
美国
使用方式:
暂无
卫星简介
星链(Starlink)计划是由太空探索技术公司(SpaceX)提出的一个巨型低轨卫星互联网星座项目,计划在2019年至2024年间在太空搭建由约1.2万颗卫星组成的“星链”网络,其中1584颗将部署在地球上空550千米处的近地轨道,并从2020年开始工作。该卫星仍在工作。
2D轨道图
3D轨道图
轨道高度分析图
轨道倾角分析图
轨道综合分析图
查看轨道综合分析图